Location: Passau
(48.5830°N, 13.4830°E)
Time: 19:23:20
(UTC+02:00)

S-56A Canister/Altair - Pass Details

Date: 27 May 2024
Orbit: 637 x 2489 km, 38.9° (Epoch: 15 June)

Event Time Altitude Azimuth Distance (km) Brightness Sun altitude
Rises 10:33:16 0° 273° (W) 5,388 11.5 49.7°
Reaches altitude 10° 10:37:40 10° 265° (W) 4,083 11.0 50.3°
Maximum altitude 10:46:13 31° 209° (SSW) 2,162 10.2 51.5°
Drops below altitude 10° 10:52:20 10° 150° (SSE) 2,868 11.2 52.3°
Sets 10:54:53 0° 139° (SE) 3,606 11.5 52.7°
